Weather History for Zanesville, OH

Change the Weather History Date:

Tuesday, April 1, 2014

  Actual Average Record
Temperature  
Mean Temperature 56 °F 46 °F  
Max Temperature 76 °F 58 °F 82 °F (1986)
Min Temperature 36 °F 35 °F 14 °F (1964)
Degree Days  
Heating Degree Days 9 19  
Month to date heating degree days 9 19  
Since 1 July heating degree days 5467 4963  
Cooling Degree Days 0 0  
Month to date cooling degree days 0 0  
Year to date cooling degree days 0 1  
Growing Degree Days 7 (Base 50)    
Moisture  
Dew Point 28 °F    
Average Humidity 41    
Maximum Humidity 64    
Minimum Humidity 17    
Precipitation  
Precipitation T in 0.12 in 0.94 in (1961)
Month to date precipitation T 0.12  
Year to date precipitation 4.40 7.95  
Sea Level Pressure  
Sea Level Pressure 29.96 in    
Wind  
Wind Speed 13 mph (SSW)    
Max Wind Speed 29 mph    
Max Gust Speed 45 mph    
Visibility 10 miles    
Events      
T = Trace of Precipitation, MM = Missing Value Source: NWS Daily Summary

Daily Weather History Graph

Daily Weather History Graph

Search for Another Location

Airport:

Trip Planner

Search our weather history database for the weather conditions in past years. The results will help you decide how hot, cold, wet, or windy it might be!

Date:

Astronomy

Apr. 01, 2014 Rise Set
Actual Time 7:11 AM EDT 7:51 PM EDT
Civil Twilight 6:44 AM EDT 8:19 PM EDT
Nautical Twilight 6:12 AM EDT 8:51 PM EDT
Astronomical Twilight 5:38 AM EDT 9:24 PM EDT
Moon 8:13 AM EDT (4/1) 10:12 PM EDT (4/1)
Length of Visible Light 13h 34m
Length of Day
12h 40m
Waxing Crescent, 4% of the Moon is Illuminated
Apr 1
Waxing Crescent
Apr 7
First Quarter
Apr 15
Full
Apr 22
Last Quarter
Apr 29
New

Hourly Weather History & Observations

Time (EDT) Temp. Windchill Dew Point Humidity Pressure Visibility Wind Dir Wind Speed Gust Speed Precip Events Conditions
12:53 AM 39.0 °F 33.4 °F 28.0 °F 65% 30.05 in 10.0 mi ESE 8.1 mph - N/A   Clear
1:53 AM 43.0 °F 39.5 °F 24.1 °F 47% 30.04 in 10.0 mi SE 5.8 mph - N/A   Clear
2:53 AM 42.1 °F 40.2 °F 26.1 °F 53% 30.03 in 10.0 mi SE 3.5 mph - N/A   Clear
3:53 AM 45.0 °F 43.5 °F 23.0 °F 42% 30.01 in 10.0 mi SE 3.5 mph - N/A   Clear
4:53 AM 46.0 °F 43.9 °F 24.1 °F 42% 30.01 in 10.0 mi SE 4.6 mph - N/A   Clear
5:53 AM 43.0 °F 40.3 °F 27.0 °F 53% 30.00 in 10.0 mi SE 4.6 mph - N/A   Clear
6:53 AM 43.0 °F 40.3 °F 28.0 °F 56% 30.01 in 10.0 mi WSW 4.6 mph - N/A   Overcast
7:53 AM 44.1 °F 40.1 °F 30.9 °F 60% 29.98 in 10.0 mi ESE 6.9 mph - 0.00 in   Overcast
8:53 AM 48.0 °F - 28.9 °F 48% 29.97 in 10.0 mi SE 4.6 mph - N/A   Overcast
9:53 AM 53.1 °F - 32.0 °F 45% 29.97 in 10.0 mi South 6.9 mph - N/A   Overcast
10:53 AM 60.1 °F - 36.0 °F 41% 29.95 in 10.0 mi South 13.8 mph - N/A   Clear
11:53 AM 66.9 °F - 37.0 °F 33% 29.92 in 10.0 mi SSW 18.4 mph 27.6 mph N/A   Clear
12:53 PM 71.1 °F - 37.0 °F 29% 29.90 in 10.0 mi SW 19.6 mph 27.6 mph N/A   Clear
1:53 PM 75.0 °F - 33.1 °F 22% 29.87 in 10.0 mi WSW 28.8 mph 40.3 mph N/A   Clear
2:53 PM 75.0 °F - 30.9 °F 20% 29.86 in 10.0 mi West 25.3 mph 43.7 mph N/A   Clear
3:53 PM 75.0 °F - 28.0 °F 18% 29.87 in 10.0 mi WSW 26.5 mph 39.1 mph N/A   Clear
4:53 PM 75.0 °F - 30.0 °F 19% 29.88 in 10.0 mi WSW 28.8 mph 35.7 mph N/A   Clear
5:53 PM 73.9 °F - 26.1 °F 17% 29.89 in 10.0 mi West 18.4 mph 32.2 mph N/A   Clear
6:53 PM 71.1 °F - 25.0 °F 18% 29.92 in 10.0 mi West 13.8 mph 26.5 mph N/A   Clear
7:53 PM 69.1 °F - 25.0 °F 19% 29.94 in 10.0 mi West 12.7 mph - N/A   Clear
8:53 PM 64.9 °F - 21.0 °F 19% 29.96 in 10.0 mi WSW 8.1 mph - N/A   Clear
9:53 PM 64.0 °F - 21.9 °F 20% 29.99 in 10.0 mi WSW 8.1 mph - N/A   Clear
10:53 PM 62.1 °F - 23.0 °F 22% 29.99 in 10.0 mi WNW 10.4 mph - N/A   Clear
11:53 PM 61.0 °F - 26.1 °F 26% 30.03 in 10.0 mi West 12.7 mph - N/A   Clear